[[{"header":{"parameterUnit":"m.s-1","parameterCategory":1,"la1":30.2991,"la2":30.254,"lo1":-89.0895,"lo2":-89.0444,"dy":0.0017,"dx":0.0017,"nx":28,"ny":28,"refTime":"2023-11-06T09:00:00:Z","depth":0,"parameterNumber":2,"parameterNumberName":"U-component_of_WINDS"},"data":[0,0,0,0,0,0,0,0,0,0,0,0,0,0,0,0,0,0,0,0,0,0,0,0,0,0,0,0,0,0,0,0,0,0,0,0,0,0,0,0,0,0,0,0,0,0,0,0,0,0,0,0,0,0,0,0,0,0,0.1138,0.1137,0,0.1101,0.11,0.11,0.1041,0.104,0.1039,0.1038,0.1002,0.1002,0.1002,0,0,0,0,0,0,0,0,0,0,0,0,0,0.1161,0.1161,0.1138,0.1137,0.1137,0.1101,0.11,0.11,0.1041,0.104,0.1039,0.1037,0.1002,0.1002,0.1002,0,0,0,0,0,0,0,0,0,0,0,0,0,0.114,0.1161,0.1138,0.1103,0.11,0.1101,0.11,0.11,0.1042,0.104,0.1038,0.1037,0.1002,0.1002,0.1002,0.1035,0,0,0.1002,0.1002,0,0,0,0,0,0,0,0,0.1141,0.1139,0.1109,0.1106,0.1102,0.1074,0.1095,0.1078,0.1042,0.1064,0.1038,0.1036,0.1027,0.1025,0.1022,0.1033,0.1031,0.1002,0.1002,0.1002,0.1002,0,0,0,0,0,0,0,0.1143,0.1141,0.1123,0.1109,0.1104,0.1091,0.1086,0.1092,0.1055,0.1062,0.1057,0.1054,0.1025,0.1022,0.1021,0.1031,0.1002,0.1002,0.1002,0.1002,0.1069,0.1071,0,0,0,0,0,0,0.1149,0.1142,0.1124,0.1122,0.1118,0.1091,0.1086,0.1084,0.1055,0.1049,0.1055,0.1051,0.1023,0.1021,0.1019,0.1057,0.1002,0.1002,0.1002,0.1068,0.107,0.1071,0,0,0,0,0,0,0.115,0.1148,0.1126,0.1131,0.1127,0.1093,0.1091,0.1085,0.1081,0.105,0.1043,0.1058,0.1021,0.1019,0.1032,0.1055,0.1002,0.1002,0.1065,0.1068,0.1071,0.1133,0,0,0,0,0,0,0.1151,0.1149,0.116,0.1132,0.1127,0.1139,0.1093,0.1085,0.1081,0.1076,0.1051,0.1046,0.102,0.1032,0.1032,0.1054,0.1003,0.1063,0.1067,0.107,0.1129,0.1138,0.1145,0,0,0,0,0,0.1152,0.1179,0.1161,0.1159,0.114,0.114,0.1137,0.1107,0.1083,0.1095,0.1075,0.1046,0.1052,0.1034,0.1033,0.1056,0.1062,0.1066,0.1069,0.1125,0.1136,0.1145,0,0,0,0,0,0,0.1211,0.1175,0.1154,0.1173,0.116,0.113,0.1144,0.1118,0.1112,0.1108,0.107,0.1065,0.1083,0.107,0.105,0.1087,0.1053,0.1057,0.1095,0.1105,0.1113,0.1117,0.1003,0,0,0,0,0,0.1227,0.1229,0.1196,0.1216,0.1211,0.1179,0.1177,0.1155,0.114,0.1135,0.1115,0.1103,0.1102,0.1102,0.11,0.1126,0.1121,0.1142,0.115,0.1156,0.1161,0.1177,0.1187,0.1084,0.1084,0.1084,0,0,0.1258,0.1239,0.1242,0.1228,0.1215,0.122,0.1174,0.118,0.1184,0.1135,0.1147,0.1132,0.1116,0.1137,0.1144,0.1126,0.1188,0.1161,0.1167,0.1168,0.1182,0.1192,0.12,0.1087,0.1087,0.1086,0,0,0.1319,0.1303,0.1319,0.1308,0.1289,0.1267,0.1271,0.1245,0.1234,0.1244,0.1209,0.1213,0.1211,0.1202,0.1197,0.1255,0.123,0.1255,0.1299,0.1314,0.1323,0.133,0.1353,0.1362,0.1259,0.126,0.126,0,0.1362,0.1366,0.1331,0.134,0.1335,0.1291,0.1308,0.1298,0.128,0.1279,0.1258,0.1257,0.1243,0.1262,0.1276,0.1273,0.1278,0.1259,0.1324,0.1331,0.1337,0.1359,0.1368,0.1263,0.1263,0.1262,0.1262,0,0.142,0.1424,0.1439,0.1423,0.142,0.1433,0.1401,0.1402,0.138,0.1361,0.1373,0.1354,0.1348,0.135,0.1328,0.1367,0.1357,0.133,0.1296,0.1351,0.1371,0.1379,0.1268,0.1267,0.1266,0.1265,0,0,0.1519,0.1483,0.149,0.1483,0.1459,0.1462,0.1473,0.1467,0.147,0.1459,0.1469,0.1469,0.1445,0.144,0.1416,0.143,0.1481,0.1402,0.1401,0.142,0.1525,0.1548,0.1558,0.1462,0.1464,0.1465,0.1528,0,0.1578,0.1595,0.1564,0.1589,0.1593,0.1552,0.1562,0.1549,0.1532,0.1534,0.1514,0.1517,0.1483,0.148,0.1491,0.1472,0.1502,0.1467,0.1474,0.1475,0.1483,0.1568,0.1591,0.1652,0.1535,0.1536,0.1537,0,0.1648,0.1641,0.1667,0.1643,0.1644,0.1654,0.1647,0.1648,0.1633,0.162,0.1614,0.1587,0.1598,0.1562,0.1578,0.1555,0.1555,0.1547,0.1548,0.155,0.1512,0.1575,0.167,0.168,0.1549,0.1548,0.1547,0,0.1722,0.1718,0.1734,0.1729,0.1701,0.1709,0.1698,0.1682,0.168,0.1674,0.1673,0.1668,0.1666,0.1663,0.1636,0.1612,0.1656,0.1617,0.1648,0.1649,0.1661,0.1662,0.176,0.1657,0.1656,0.1656,0.1656,0,0.1792,0.181,0.1767,0.1777,0.1797,0.1761,0.1782,0.1766,0.1752,0.176,0.1722,0.173,0.1691,0.1695,0.1673,0.1692,0.169,0.1681,0.1676,0.1687,0.1688,0.1689,0.1685,0.1659,0.1658,0.1658,0.1657,0,0.1879,0.185,0.1865,0.1837,0.1831,0.1847,0.1824,0.1833,0.1813,0.1823,0.1823,0.1792,0.1795,0.1766,0.1763,0.1749,0.1779,0.1764,0.1784,0.1781,0.1814,0.1813,0.1919,0.1933,0.1818,0.1819,0.182,0,0.1927,0.194,0.1914,0.1916,0.1907,0.1911,0.191,0.1875,0.1875,0.186,0.1872,0.1871,0.187,0.1877,0.1855,0.1853,0.1841,0.1878,0.184,0.1851,0.1845,0.1846,0.1849,0.1887,0.1889,0.189,0.1891,0,0.2017,0.2002,0.2002,0.1997,0.1996,0.1991,0.1982,0.1986,0.1949,0.1952,0.1954,0.1953,0.195,0.1952,0.1946,0.1935,0.1908,0.1902,0.191,0.1922,0.1935,0.1932,0.1809,0.1901,0.19,0.1899,0.1898,0.1898,0.2088,0.2099,0.2083,0.2084,0.2074,0.2068,0.2076,0.2057,0.2058,0.2054,0.2033,0.204,0.2026,0.2015,0.2008,0.2014,0.1996,0.2006,0.2009,0.2013,0.202,0.1931,0.2012,0.2011,0.2011,0.2011,0.2011,0,0.2179,0.2167,0.2168,0.2158,0.216,0.2132,0.2122,0.2125,0.2132,0.2121,0.212,0.2124,0.2126,0.2104,0.2103,0.2112,0.2099,0.2113,0.2114,0.2112,0.2035,0.203,0.2123,0.2123,0.2123,0.2123,0.2123,0.2123,0.2227,0.2244,0.2228,0.2241,0.2228,0.2235,0.2232,0.2227,0.2218,0.2225,0.2226,0.2211,0.2196,0.2194,0.2195,0.2188,0.2191,0.221,0.22,0.2128,0.2117,0.2107,0.2103,0.221,0.221,0.2277,0.2278,0.2278]},{"header":{"parameterUnit":"m.s-1","parameterCategory":1,"la1":30.2991,"la2":30.254,"lo1":-89.0895,"lo2":-89.0444,"dy":0.0017,"dx":0.0017,"nx":28,"ny":28,"refTime":"2023-11-06T09:00:00:Z","depth":0,"parameterNumber":3,"parameterNumberName":"V-component_of_WINDS"},"data":[0,0,0,0,0,0,0,0,0,0,0,0,0,0,0,0,0,0,0,0,0,0,0,0,0,0,0,0,0,0,0,0,0,0,0,0,0,0,0,0,0,0,0,0,0,0,0,0,0,0,0,0,0,0,0,0,0,0,-1.1413,-1.1413,0,-1.1477,-1.1477,-1.1478,-1.1494,-1.1494,-1.1493,-1.1493,-1.1559,-1.1561,-1.1563,0,0,0,0,0,0,0,0,0,0,0,0,0,-1.1304,-1.1306,-1.1413,-1.1413,-1.1414,-1.1477,-1.1477,-1.1478,-1.1494,-1.1494,-1.1493,-1.1493,-1.1558,-1.156,-1.1563,0,0,0,0,0,0,0,0,0,0,0,0,0,-1.1358,-1.1307,-1.1412,-1.143,-1.1432,-1.1476,-1.1477,-1.1479,-1.1494,-1.1494,-1.1493,-1.1493,-1.1557,-1.156,-1.1563,-1.1595,0,0,-1.1573,-1.1574,0,0,0,0,0,0,0,0,-1.1355,-1.1362,-1.1426,-1.1429,-1.1431,-1.1477,-1.1463,-1.1518,-1.1495,-1.1471,-1.1493,-1.1492,-1.1532,-1.1537,-1.1551,-1.1598,-1.1601,-1.1573,-1.1575,-1.1577,-1.1578,0,0,0,0,0,0,0,-1.1351,-1.1359,-1.1438,-1.1427,-1.143,-1.1434,-1.1441,-1.1474,-1.1504,-1.1473,-1.1474,-1.1481,-1.1533,-1.1547,-1.1552,-1.1602,-1.1573,-1.1576,-1.1578,-1.1579,-1.1679,-1.168,0,0,0,0,0,0,-1.1344,-1.1356,-1.1436,-1.144,-1.1391,-1.1437,-1.1444,-1.1463,-1.1504,-1.1509,-1.1482,-1.1482,-1.1542,-1.1548,-1.1555,-1.1594,-1.1577,-1.158,-1.1581,-1.1678,-1.1679,-1.168,0,0,0,0,0,0,-1.1342,-1.1351,-1.1433,-1.1398,-1.1409,-1.1439,-1.146,-1.1464,-1.1479,-1.1511,-1.1516,-1.1491,-1.1542,-1.155,-1.1585,-1.1597,-1.1581,-1.1584,-1.1677,-1.1678,-1.1679,-1.1675,0,0,0,0,0,0,-1.1339,-1.135,-1.1363,-1.1398,-1.1411,-1.1463,-1.146,-1.1466,-1.1484,-1.1485,-1.152,-1.1526,-1.1542,-1.158,-1.1588,-1.1601,-1.1586,-1.1676,-1.1678,-1.1679,-1.1674,-1.1675,-1.1677,0,0,0,0,0,-1.1335,-1.1359,-1.1363,-1.1373,-1.1427,-1.1463,-1.1471,-1.1489,-1.1485,-1.1498,-1.1518,-1.1525,-1.1594,-1.1584,-1.1593,-1.1607,-1.1676,-1.1677,-1.1679,-1.1673,-1.1675,-1.1677,0,0,0,0,0,0,-1.1324,-1.1364,-1.1369,-1.1406,-1.1431,-1.1466,-1.1483,-1.149,-1.1517,-1.1517,-1.1538,-1.1546,-1.158,-1.1597,-1.1584,-1.164,-1.1635,-1.1638,-1.1627,-1.1629,-1.1631,-1.1626,-1.1589,0,0,0,0,0,-1.1326,-1.1352,-1.1386,-1.1415,-1.1427,-1.1453,-1.1469,-1.1481,-1.1508,-1.1519,-1.1542,-1.1568,-1.1595,-1.1613,-1.1641,-1.1676,-1.1684,-1.169,-1.1692,-1.1693,-1.1696,-1.1716,-1.1719,-1.1685,-1.1685,-1.1685,0,0,-1.1331,-1.1356,-1.1371,-1.1413,-1.1434,-1.1461,-1.1462,-1.149,-1.151,-1.1523,-1.1558,-1.1575,-1.1606,-1.1641,-1.1657,-1.1656,-1.1707,-1.1695,-1.1695,-1.1698,-1.1718,-1.1721,-1.1723,-1.1686,-1.1686,-1.1686,0,0,-1.1352,-1.1373,-1.14,-1.1421,-1.1452,-1.1469,-1.1475,-1.1509,-1.1521,-1.1556,-1.1567,-1.1591,-1.1638,-1.1659,-1.1676,-1.1705,-1.1712,-1.1713,-1.1721,-1.174,-1.1742,-1.1745,-1.1755,-1.1758,-1.1716,-1.1716,-1.1716,0,-1.1354,-1.1394,-1.1413,-1.144,-1.1458,-1.1471,-1.1498,-1.1518,-1.1556,-1.1569,-1.1566,-1.1626,-1.1647,-1.1688,-1.1694,-1.1708,-1.1715,-1.1709,-1.174,-1.1743,-1.1746,-1.1756,-1.1759,-1.1715,-1.1715,-1.1715,-1.1715,0,-1.1394,-1.1422,-1.1439,-1.1476,-1.1497,-1.1524,-1.1546,-1.1564,-1.1574,-1.1591,-1.1626,-1.1652,-1.1685,-1.1695,-1.1705,-1.1737,-1.1735,-1.1736,-1.1732,-1.1748,-1.1758,-1.1762,-1.1715,-1.1715,-1.1715,-1.1715,0,0,-1.1412,-1.1458,-1.1464,-1.1481,-1.1516,-1.1538,-1.1565,-1.1597,-1.1612,-1.1639,-1.1662,-1.1701,-1.1703,-1.1722,-1.1734,-1.1751,-1.1772,-1.1751,-1.1752,-1.1754,-1.1808,-1.1807,-1.1812,-1.1777,-1.1777,-1.1778,-1.1806,0,-1.1438,-1.1487,-1.1504,-1.1545,-1.1571,-1.1583,-1.1607,-1.1631,-1.1648,-1.1672,-1.169,-1.1718,-1.1717,-1.1729,-1.1746,-1.1766,-1.1783,-1.1764,-1.1799,-1.18,-1.1791,-1.1817,-1.1816,-1.1841,-1.181,-1.1811,-1.1811,0,-1.1475,-1.1501,-1.1544,-1.1576,-1.1588,-1.1609,-1.1639,-1.1662,-1.169,-1.17,-1.1721,-1.1732,-1.1761,-1.1755,-1.1795,-1.1782,-1.1797,-1.1808,-1.181,-1.1814,-1.1807,-1.1822,-1.185,-1.1853,-1.1817,-1.1817,-1.1816,0,-1.1483,-1.153,-1.1562,-1.1575,-1.1613,-1.1628,-1.1644,-1.1671,-1.1689,-1.1715,-1.1727,-1.1757,-1.1773,-1.1795,-1.1814,-1.1807,-1.1852,-1.1847,-1.1862,-1.1861,-1.1871,-1.1871,-1.1902,-1.188,-1.188,-1.188,-1.188,0,-1.1511,-1.1537,-1.1566,-1.1585,-1.1615,-1.1634,-1.1663,-1.168,-1.1704,-1.1727,-1.1739,-1.1761,-1.1784,-1.1808,-1.1823,-1.1854,-1.1861,-1.187,-1.1874,-1.1869,-1.1868,-1.188,-1.1879,-1.1881,-1.1881,-1.1881,-1.1881,0,-1.1526,-1.1546,-1.1582,-1.1614,-1.1623,-1.1643,-1.1671,-1.1691,-1.1707,-1.1736,-1.1744,-1.177,-1.18,-1.182,-1.1858,-1.1868,-1.1901,-1.1904,-1.1892,-1.1894,-1.1907,-1.1906,-1.1948,-1.1954,-1.1928,-1.1928,-1.1928,0,-1.1542,-1.1562,-1.1597,-1.1613,-1.163,-1.1656,-1.1674,-1.1693,-1.1712,-1.1744,-1.176,-1.179,-1.1815,-1.1861,-1.1883,-1.1912,-1.1917,-1.1929,-1.1921,-1.1916,-1.1917,-1.1916,-1.1918,-1.1931,-1.1931,-1.1931,-1.1931,0,-1.1569,-1.1578,-1.1604,-1.1633,-1.1654,-1.1678,-1.1702,-1.1714,-1.1738,-1.1758,-1.1788,-1.1807,-1.1846,-1.1875,-1.1906,-1.1923,-1.1931,-1.1933,-1.1938,-1.1934,-1.1926,-1.1931,-1.1896,-1.1933,-1.1932,-1.1932,-1.1932,-1.1932,-1.1586,-1.1604,-1.1631,-1.1659,-1.1679,-1.1701,-1.1721,-1.174,-1.1765,-1.1798,-1.1808,-1.1839,-1.1865,-1.1907,-1.1925,-1.1949,-1.1949,-1.1956,-1.1958,-1.1959,-1.1959,-1.1922,-1.1955,-1.1955,-1.1955,-1.1955,-1.1955,0,-1.1614,-1.1632,-1.1657,-1.169,-1.1712,-1.1717,-1.1744,-1.1762,-1.1789,-1.1813,-1.1837,-1.1872,-1.19,-1.1924,-1.1954,-1.1969,-1.1974,-1.1976,-1.1976,-1.1979,-1.1958,-1.1951,-1.1972,-1.1972,-1.1972,-1.1972,-1.1972,-1.1972,-1.1631,-1.1663,-1.1674,-1.1716,-1.1734,-1.1764,-1.1779,-1.1799,-1.1818,-1.1856,-1.188,-1.1895,-1.1919,-1.1951,-1.1977,-1.1984,-1.1994,-1.1996,-1.2003,-1.1983,-1.1981,-1.1979,-1.1973,-1.1998,-1.1998,-1.2023,-1.2023,-1.2023]}]]